Regional Weather Roundup
Issued by NWS

Home | Current Version | Previous Version | Graphics & Text | Print | Product List | Glossary On
Versions: 1 2 3 4 5 6 7 8 9 10 11 12 13 14 15 16 17 18 19 20 21 22 23 24 25 26 27 28 29 30 31 32 33 34 35 36 37 38 39 40 41 42 43 44 45 46 47 48 49 50
000
ASUS43 KDMX 202207
RWRIA

WEATHER ROUNDUP FOR IOWA
NATIONAL WEATHER SERVICE DES MOINES IA
400 PM CST THU NOV 20 2014

NOTE: "FAIR" INDICATES FEW OR NO CLOUDS BELOW 12,000 FEET WITH NO
SIGNIFICANT WEATHER AND/OR OBSTRUCTIONS TO VISIBILITY.

* - THESE STATIONS ARE NOT NWS STATIONS...THUS NOT UNDER NWS
QUALITY CONTROL.  THEY ALSO DO NOT REPORT WEATHER SUCH
AS PRECIPITATION OR FOG.

IAZ001>003-012>014-020>022-031>034-043>046-202300-
   NORTHWEST IOWA

CITY           SKY/WX    TMP DP  RH WIND       PRES   REMARKS
CARROLL *      CLEAR     23  12  63 NW9       30.21R WCI  13
CHEROKEE *     CLEAR     21  12  68 NW6       30.20R WCI  14
DENISON *      CLEAR     25  12  58 N6        30.18S WCI  18
LE MARS *      CLEAR     23  12  63 N6        30.20S WCI  16
ORANGE CITY *  CLEAR     23  12  63 NW5       30.18R WCI  17
SHELDON *      CLEAR     19  10  68 N7        30.18R WCI  10
SIOUX CITY     CLEAR     27  13  55 NW3       30.20S
SPENCER        CLEAR     19  10  68 NW6       30.19R WCI  11
STORM LAKE *   CLEAR     21  12  68 NW6       30.19R WCI  14
$$

IAZ055>058-069>071-079>083-090>094-202300-
   SOUTHWEST IOWA

CITY           SKY/WX    TMP DP  RH WIND       PRES   REMARKS
ATLANTIC *     CLEAR     27  16  63 N7        30.21R WCI  19
AUDUBON *      CLEAR     27  12  54 NW5       30.20S WCI  21
CLARINDA *     MOCLDY    28  19  69 N7        30.23R WCI  21
COUNCIL BLFS * PTCLDY    28  19  69 NE7       30.19R WCI  21
CRESTON *      CLEAR     25  14  63 NW8       30.20R WCI  16
HARLAN  *      CLEAR     25  18  74 NW8       30.23S WCI  16
LAMONI         CLEAR     28  17  63 NW8       30.20R WCI  20
RED OAK *      CLOUDY    28  19  69 N8        30.22R WCI  20
SHENANDOAH *   CLEAR     32  19  59 NE7       30.22R WCI  26
$$

IAZ047>049-059>061-072>074-084-202300-
   CENTRAL IOWA

CITY           SKY/WX    TMP DP  RH WIND       PRES   REMARKS
AMES           CLEAR     24  11  57 NW10      30.22R WCI  14
ANKENY *       CLEAR     27  12  54 NW9       30.23R WCI  17
CHARITON *     CLEAR     28  14  54 N7        30.20R WCI  21
DES MOINES     PTCLDY    28  14  55 NW10      30.22R WCI  19
GRINNELL*      CLEAR     25  12  58 NW9       30.21R WCI  15
KNOXVILLE *    CLEAR     28  10  47 NW9       30.20R WCI  20
MARSHALLTOWN   CLEAR     22  11  62 NW12      30.21R WCI  10
PELLA *        CLEAR     28  14  54 NW12      30.23R WCI  18
PERRY *          N/A     25  16  68 N6        30.22R WCI  18
$$

IAZ004>006-015-016-023>025-035-036-202300-
   NORTH CENTRAL IOWA

CITY           SKY/WX    TMP DP  RH WIND       PRES   REMARKS
ALGONA *       CLEAR     19   9  63 NW7       30.20R WCI  10
CLARION *      CLEAR     19   9  63 NW8       30.20R WCI   9
ESTHERVILLE    CLEAR     18   8  65 NW8       30.17S WCI   8
FORT DODGE *   CLEAR     21   9  58 NW3       30.22R
MASON CITY     CLEAR     18   8  65 NW10      30.19R WCI   6
FOREST CITY *  CLEAR     19  10  68 NW10      30.18R WCI   8
IOWA FALLS *     N/A     21  10  63 NW9       30.21R HAZE    WCI  11
$$

IAZ007>011-017>019-026>030-037>042-050>054-066-202300-
   NORTHEAST IOWA

CITY           SKY/WX    TMP DP  RH WIND       PRES   REMARKS
CEDAR RAPIDS   CLEAR     22  12  65 NW14      30.19R WCI   9
CHARLES CITY * CLEAR     19   5  53 NW14      30.19R WCI   6
CLINTON *      CLEAR     23   7  50 NW15      30.21R WCI  10
DECORAH *      CLEAR     18   5  57 W10G17    30.15R WCI   6
DUBUQUE        CLEAR     19   7  59 W17       30.15R WCI   4
MONTICELLO *   CLEAR     21   9  58 NW13G20   30.18R WCI   9
OELWEIN *      CLEAR     19   7  58 NW14      30.18R WCI   6
WATERLOO       CLEAR     20   8  60 NW13      30.20R WCI   7
$$

IAZ064-065-067-068-078-202300-
   EAST CENTRAL IOWA

CITY           SKY/WX    TMP DP  RH WIND       PRES   REMARKS
DAVENPORT      CLEAR     25   6  44 NW14      30.19R WCI  13
IOWA CITY      CLEAR     25  11  55 NW13      30.23R WCI  14
MT. PLEASANT * CLEAR     28  10  47 NW7       30.21R WCI  21
MUSCATINE *    CLEAR     28  10  47 NW14      30.23R WCI  17
QUAD CITIES    CLEAR     27   8  44 NW18      30.19R WCI  14
$$

IAZ062-063-075>077-085>089-095>099-202300-
   SOUTHEAST IOWA

CITY           SKY/WX    TMP DP  RH WIND       PRES   REMARKS
BURLINGTON     CLEAR     30  11  45 NW8       30.20R WCI  22
FAIRFIELD *    CLEAR     28  12  50 NW12      30.21R WCI  18
FORT MADISON * CLEAR     30  14  51 NW10      30.21R WCI  21
KEOKUK *       CLEAR     32  14  47 W9        30.21R WCI  24
OSKALOOSA *      N/A     27  12  54 NW14      30.22R WCI  15
CENTERVILLE *  CLEAR     28  14  54 W7        30.21S WCI  21
OTTUMWA        CLEAR     28  11  48 NW13      30.21R WCI  17
WASHINGTON *   CLEAR     28  12  50 NW13      30.21R WCI  18
$$

ABBREVIATIONS USED IN REMARKS
   TC - TEMPERATURES IN CELSIUS
  WCI - WIND CHILL INDEX
   HX - HEAT INDEX
  VSB - VISIBILITY
$$




USA.gov is the U.S. government's official web portal to all federal, state and local government web resources and services.